Terug naar catalogus

STARLINK-35100

ActiefCommunicatieSSO
NORAD 65542·PAYLOAD·🇺🇸 United States

Gelanceerd Sep 6, 2025 vanaf Cape Canaveral Space Force Station

Loading…

Volgende Passages (komende 24 uur)

TLE

VersSource: CelesTrak SupGP

Epoch: Sep 14, 2026, 22:38 UTC

1 65542C 25200Y   26257.94354167  .00007445  00000+0  23110-3 0  2578
2 65542  97.2845 324.4092 0001351  88.6132 128.4496 15.33435927    18

Volg STARLINK-35100 in realtime met AllMySat

Download on the App Store